Voltar ao catálogo

SENTINEL 3B

AtivoCiênciaSSO
NORAD 43437·PAYLOAD·🇪🇺 EU

Lançado Apr 25, 2018 de Plesetsk Cosmodrome

Loading…

Próximas Passagens (próximas 24 horas)

TLE

AtualizadoSource: Space-Track

Época: Sep 14, 2026, 02:44 UTC

1 43437U 18039A   26257.11435526  .00000072  00000-0  47647-4 0  9992
2 43437  98.6282 323.3581 0001381  77.7303 282.4032 14.26737204436801

Acompanhe SENTINEL 3B em tempo real com AllMySat

Download on the App Store